Regional Weather Roundup
Issued by NWS Goodland, KS

Home | Current Version | Previous Version | Text Only | Print | Product List | Glossary Off
Versions: 1 2 3 4 5 6 7 8 9 10 11 12 13 14 15 16 17 18 19 20 21 22 23 24 25 26 27 28 29 30 31 32 33 34 35 36 37 38 39 40 41 42 43 44 45 46 47 48 49 50

000
ASUS43 KGLD 291408
RWRGLD

GOODLAND FORECAST AREA HOURLY WEATHER ROUNDUP
NATIONAL WEATHER SERVICE GOODLAND KS
700 AM MST THU JAN 29 2015

...OFFICIAL OBSERVATIONS...

CITY           SKY/WX    TMP DP  RH WIND       PRES   REMARKS
GOODLAND KS    CLOUDY    30  26  85 N13       30.44R WCI  20
HILL CITY KS   CLEAR     30  25  81 W12       30.44R
IMPERIAL NEB   PTCLDY    29  23  78 NW9       30.46R
MCCOOK NEB     CLEAR     28  23  81 W10       30.45R WCI  19
AKRON CO       CLOUDY    33  22  63 NW12      30.45R
BURLINGTON CO  CLOUDY    32  28  85 NW9       30.44R
LIMON CO       CLOUDY    33  26  75 NW9       30.45R
$$

...UNOFFICIAL OBSERVATIONS...

CITY           SKY/WX    TMP DP  RH WIND       PRES   REMARKS
COLBY KS       CLEAR     30  28  93 NW17      30.46R WCI  18
GOVE KS          N/A     33  32  96 MISG        N/A
NORTON KS      CLEAR     28  21  74 W12       30.42R WCI  18
SHARON SPRINGS   N/A     32  26  77 N7          N/A
KIT CARSON CO    N/A     36  26  66 MISG        N/A
YUMA CO          N/A     34  23  63 NW12        N/A
$$


USA.gov is the U.S. government's official web portal to all federal, state and local government web resources and services.